2020,10,18,00,00,00,-33.5,,,,,,,,,,,,,,
2020,10,18,00,01,00,,,,,,,,,,,,,,,
2020,10,18,00,02,00,-33.6,,,,,,,,,,,,,,
2020,10,18,00,03,00,-33.6,,,,,,,,,,,,,,
2020,10,18,00,04,00,-33.6,,,,,,,,,,,,,,
2020,10,18,00,05,00,-33.7,,,,,,,,,,,,,,
2020,10,18,00,06,00,-33.8,,,,,,,,,,,,,,
2020,10,18,00,07,00,-33.8,,,,,,,,,,,,,,
2020,10,18,00,08,00,-33.9,,,,,,,,,,,,,,
2020,10,18,00,09,00,-33.9,,,,,,,,,,,,,,
2020,10,18,00,10,00,-33.9,,,,,,,,,,,,,,
2020,10,18,00,11,00,-33.9,,,,,,,,,,,,,,
2020,10,18,00,12,00,-33.8,,,,,,,,,,,,,,
2020,10,18,00,13,00,-33.7,,,,,,,,,,,,,,
2020,10,18,00,14,00,-33.7,,,,,,,,,,,,,,
2020,10,18,00,15,00,-33.6,,,,,,,,,,,,,,
2020,10,18,00,16,00,-33.6,,,,,,,,,,,,,,
2020,10,18,00,17,00,-33.7,,,,,,,,,,,,,,
2020,10,18,00,18,00,-33.7,,,,,,,,,,,,,,
2020,10,18,00,19,00,-33.8,,,,,,,,,,,,,,
2020,10,18,00,20,00,-33.9,,,,,,,,,,,,,,
2020,10,18,00,21,00,-33.8,,,,,,,,,,,,,,
2020,10,18,00,22,00,-33.7,,,,,,,,,,,,,,
2020,10,18,00,23,00,-33.6,,,,,,,,,,,,,,
2020,10,18,00,24,00,-33.4,,,,,,,,,,,,,,
2020,10,18,00,25,00,-33.4,,,,,,,,,,,,,,
2020,10,18,00,26,00,-33.5,,,,,,,,,,,,,,
2020,10,18,00,27,00,-33.6,,,,,,,,,,,,,,
2020,10,18,00,28,00,-33.6,,,,,,,,,,,,,,
2020,10,18,00,29,00,-33.7,,,,,,,,,,,,,,
2020,10,18,00,30,00,-33.7,,,,,,,,,,,,,,
2020,10,18,00,31,00,-33.6,,,,,,,,,,,,,,
2020,10,18,00,32,00,-33.5,,,,,,,,,,,,,,
2020,10,18,00,33,00,-33.5,,,,,,,,,,,,,,
2020,10,18,00,34,00,-33.4,,,,,,,,,,,,,,
2020,10,18,00,35,00,-33.5,,,,,,,,,,,,,,
2020,10,18,00,36,00,-33.6,,,,,,,,,,,,,,
2020,10,18,00,37,00,-33.5,,,,,,,,,,,,,,
2020,10,18,00,38,00,-33.4,,,,,,,,,,,,,,
2020,10,18,00,39,00,-33.3,,,,,,,,,,,,,,
2020,10,18,00,40,00,-33.3,,,,,,,,,,,,,,
2020,10,18,00,41,00,-33.3,,,,,,,,,,,,,,
2020,10,18,00,42,00,-33.2,,,,,,,,,,,,,,
2020,10,18,00,43,00,-33.3,,,,,,,,,,,,,,
2020,10,18,00,44,00,-33.2,,,,,,,,,,,,,,
2020,10,18,00,45,00,-33.1,,,,,,,,,,,,,,
2020,10,18,00,46,00,-33.1,,,,,,,,,,,,,,
2020,10,18,00,47,00,-32.9,,,,,,,,,,,,,,
2020,10,18,00,48,00,-33.1,,,,,,,,,,,,,,
2020,10,18,00,49,00,-33.2,,,,,,,,,,,,,,
2020,10,18,00,50,00,-33.1,,,,,,,,,,,,,,
2020,10,18,00,51,00,-33.1,,,,,,,,,,,,,,
2020,10,18,00,52,00,-33.0,,,,,,,,,,,,,,
2020,10,18,00,53,00,-32.8,,,,,,,,,,,,,,
2020,10,18,00,54,00,-32.8,,,,,,,,,,,,,,
2020,10,18,00,55,00,-32.8,,,,,,,,,,,,,,
2020,10,18,00,56,00,-32.9,,,,,,,,,,,,,,
2020,10,18,00,57,00,-32.8,,,,,,,,,,,,,,
2020,10,18,00,58,00,-32.9,,,,,,,,,,,,,,
2020,10,18,00,59,00,-33.1,,,,,,,,,,,,,,
2020,10,18,01,00,00,-33.0,,,,,,,,,,,,,,
2020,10,18,01,01,00,-33.1,,,,,,,,,,,,,,
2020,10,18,01,02,00,-33.2,,,,,,,,,,,,,,
2020,10,18,01,03,00,-33.2,,,,,,,,,,,,,,
2020,10,18,01,04,00,-33.4,,,,,,,,,,,,,,
2020,10,18,01,05,00,-33.7,,,,,,,,,,,,,,
2020,10,18,01,06,00,-34.0,,,,,,,,,,,,,,
2020,10,18,01,07,00,-34.0,,,,,,,,,,,,,,
2020,10,18,01,08,00,-34.0,,,,,,,,,,,,,,
2020,10,18,01,09,00,-34.3,,,,,,,,,,,,,,
2020,10,18,01,10,00,-34.5,,,,,,,,,,,,,,
2020,10,18,01,11,00,-34.4,,,,,,,,,,,,,,
2020,10,18,01,12,00,-34.4,,,,,,,,,,,,,,
2020,10,18,01,13,00,-34.3,,,,,,,,,,,,,,
2020,10,18,01,14,00,-34.3,,,,,,,,,,,,,,
2020,10,18,01,15,00,-34.3,,,,,,,,,,,,,,
2020,10,18,01,16,00,-34.2,,,,,,,,,,,,,,
2020,10,18,01,17,00,-34.2,,,,,,,,,,,,,,
2020,10,18,01,18,00,-34.3,,,,,,,,,,,,,,
2020,10,18,01,19,00,-34.1,,,,,,,,,,,,,,
2020,10,18,01,20,00,-33.8,,,,,,,,,,,,,,
2020,10,18,01,21,00,-33.9,,,,,,,,,,,,,,
2020,10,18,01,22,00,-34.0,,,,,,,,,,,,,,
2020,10,18,01,23,00,-34.1,,,,,,,,,,,,,,
2020,10,18,01,24,00,-33.9,,,,,,,,,,,,,,
2020,10,18,01,25,00,-33.5,,,,,,,,,,,,,,
2020,10,18,01,26,00,-33.4,,,,,,,,,,,,,,
2020,10,18,01,27,00,-33.3,,,,,,,,,,,,,,
2020,10,18,01,28,00,-33.2,,,,,,,,,,,,,,
2020,10,18,01,29,00,-33.3,,,,,,,,,,,,,,
2020,10,18,01,30,00,-33.2,,,,,,,,,,,,,,
2020,10,18,01,31,00,-33.2,,,,,,,,,,,,,,
2020,10,18,01,32,00,-33.1,,,,,,,,,,,,,,
2020,10,18,01,33,00,-33.0,,,,,,,,,,,,,,
2020,10,18,01,34,00,-32.9,,,,,,,,,,,,,,
2020,10,18,01,35,00,-32.9,,,,,,,,,,,,,,
2020,10,18,01,36,00,-32.8,,,,,,,,,,,,,,
2020,10,18,01,37,00,-32.8,,,,,,,,,,,,,,
2020,10,18,01,38,00,-33.2,,,,,,,,,,,,,,
2020,10,18,01,39,00,-33.6,,,,,,,,,,,,,,
2020,10,18,01,40,00,-33.8,,,,,,,,,,,,,,
2020,10,18,01,41,00,-34.0,,,,,,,,,,,,,,
2020,10,18,01,42,00,-34.0,,,,,,,,,,,,,,
2020,10,18,01,43,00,-34.0,,,,,,,,,,,,,,
2020,10,18,01,44,00,-34.0,,,,,,,,,,,,,,
2020,10,18,01,45,00,-34.1,,,,,,,,,,,,,,
2020,10,18,01,46,00,-34.0,,,,,,,,,,,,,,
2020,10,18,01,47,00,-34.1,,,,,,,,,,,,,,
2020,10,18,01,48,00,-34.2,,,,,,,,,,,,,,
2020,10,18,01,49,00,-34.3,,,,,,,,,,,,,,
2020,10,18,01,50,00,-34.2,,,,,,,,,,,,,,
2020,10,18,01,51,00,-34.2,,,,,,,,,,,,,,
2020,10,18,01,52,00,-34.0,,,,,,,,,,,,,,
2020,10,18,01,53,00,-33.9,,,,,,,,,,,,,,
2020,10,18,01,54,00,-33.9,,,,,,,,,,,,,,
2020,10,18,01,55,00,-34.0,,,,,,,,,,,,,,
2020,10,18,01,56,00,-34.1,,,,,,,,,,,,,,
2020,10,18,01,57,00,-34.3,,,,,,,,,,,,,,
2020,10,18,01,58,00,-34.3,,,,,,,,,,,,,,
2020,10,18,01,59,00,-34.4,,,,,,,,,,,,,,
2020,10,18,02,00,00,-34.5,,,,,,,,,,,,,,
2020,10,18,02,01,00,-34.4,,,,,,,,,,,,,,
2020,10,18,02,02,00,-34.6,,,,,,,,,,,,,,
2020,10,18,02,03,00,-34.5,,,,,,,,,,,,,,
2020,10,18,02,04,00,-34.3,,,,,,,,,,,,,,
2020,10,18,02,05,00,-34.4,,,,,,,,,,,,,,
2020,10,18,02,06,00,-34.9,,,,,,,,,,,,,,
2020,10,18,02,07,00,-35.2,,,,,,,,,,,,,,
2020,10,18,02,08,00,-35.3,,,,,,,,,,,,,,
2020,10,18,02,09,00,-35.5,,,,,,,,,,,,,,
2020,10,18,02,10,00,-35.3,,,,,,,,,,,,,,
2020,10,18,02,11,00,-35.3,,,,,,,,,,,,,,
2020,10,18,02,12,00,-35.2,,,,,,,,,,,,,,
2020,10,18,02,13,00,-35.3,,,,,,,,,,,,,,
2020,10,18,02,14,00,-35.4,,,,,,,,,,,,,,
2020,10,18,02,15,00,-35.6,,,,,,,,,,,,,,
2020,10,18,02,16,00,-35.7,,,,,,,,,,,,,,
2020,10,18,02,17,00,-35.6,,,,,,,,,,,,,,
2020,10,18,02,18,00,-35.5,,,,,,,,,,,,,,
2020,10,18,02,19,00,-35.3,,,,,,,,,,,,,,
2020,10,18,02,20,00,-35.4,,,,,,,,,,,,,,
2020,10,18,02,21,00,-35.2,,,,,,,,,,,,,,
2020,10,18,02,22,00,-35.2,,,,,,,,,,,,,,
2020,10,18,02,23,00,-35.0,,,,,,,,,,,,,,
2020,10,18,02,24,00,-34.8,,,,,,,,,,,,,,
2020,10,18,02,25,00,-34.6,,,,,,,,,,,,,,
2020,10,18,02,26,00,-34.5,,,,,,,,,,,,,,
2020,10,18,02,27,00,-34.4,,,,,,,,,,,,,,
2020,10,18,02,28,00,-34.4,,,,,,,,,,,,,,
2020,10,18,02,29,00,-34.3,,,,,,,,,,,,,,
2020,10,18,02,30,00,-34.2,,,,,,,,,,,,,,
2020,10,18,02,31,00,,,,,,,,,,,,,,,
2020,10,18,02,32,00,,,,,,,,,,,,,,,
2020,10,18,02,33,00,-33.8,,,,,,,,,,,,,,
2020,10,18,02,34,00,-33.6,,,,,,,,,,,,,,
2020,10,18,02,35,00,-33.4,,,,,,,,,,,,,,
2020,10,18,02,36,00,-33.4,,,,,,,,,,,,,,
2020,10,18,02,37,00,-33.4,,,,,,,,,,,,,,
2020,10,18,02,38,00,-33.7,,,,,,,,,,,,,,
2020,10,18,02,39,00,-33.9,,,,,,,,,,,,,,
2020,10,18,02,40,00,-34.0,,,,,,,,,,,,,,
2020,10,18,02,41,00,-34.1,,,,,,,,,,,,,,
2020,10,18,02,42,00,-34.2,,,,,,,,,,,,,,
2020,10,18,02,43,00,-34.2,,,,,,,,,,,,,,
2020,10,18,02,44,00,-34.1,,,,,,,,,,,,,,
2020,10,18,02,45,00,-33.9,,,,,,,,,,,,,,
2020,10,18,02,46,00,-33.7,,,,,,,,,,,,,,
2020,10,18,02,47,00,-33.8,,,,,,,,,,,,,,
2020,10,18,02,48,00,-34.0,,,,,,,,,,,,,,
2020,10,18,02,49,00,-34.4,,,,,,,,,,,,,,
2020,10,18,02,50,00,-34.3,,,,,,,,,,,,,,
2020,10,18,02,51,00,-33.7,,,,,,,,,,,,,,
2020,10,18,02,52,00,-33.3,,,,,,,,,,,,,,
2020,10,18,02,53,00,-33.0,,,,,,,,,,,,,,
2020,10,18,02,54,00,-32.5,,,,,,,,,,,,,,
2020,10,18,02,55,00,-32.5,,,,,,,,,,,,,,
2020,10,18,02,56,00,-32.2,,,,,,,,,,,,,,
2020,10,18,02,57,00,-31.9,,,,,,,,,,,,,,
2020,10,18,02,58,00,-31.6,,,,,,,,,,,,,,
2020,10,18,02,59,00,-31.4,,,,,,,,,,,,,,
2020,10,18,03,00,00,-31.3,,,,,,,,,,,,,,
2020,10,18,03,01,00,-31.2,,,,,,,,,,,,,,
2020,10,18,03,02,00,-31.1,,,,,,,,,,,,,,
2020,10,18,03,03,00,-31.2,,,,,,,,,,,,,,
2020,10,18,03,04,00,-31.3,,,,,,,,,,,,,,
2020,10,18,03,05,00,-31.4,,,,,,,,,,,,,,
2020,10,18,03,06,00,,,,,,,,,,,,,,,
2020,10,18,03,07,00,,,,,,,,,,,,,,,
2020,10,18,03,08,00,,,,,,,,,,,,,,,
2020,10,18,03,09,00,-31.5,,,,,,,,,,,,,,
2020,10,18,03,10,00,-31.2,,,,,,,,,,,,,,
2020,10,18,03,11,00,-31.0,,,,,,,,,,,,,,
2020,10,18,03,12,00,-30.9,,,,,,,,,,,,,,
2020,10,18,03,13,00,-31.2,,,,,,,,,,,,,,
2020,10,18,03,14,00,-31.2,,,,,,,,,,,,,,
2020,10,18,03,15,00,-31.1,,,,,,,,,,,,,,
2020,10,18,03,16,00,-31.1,,,,,,,,,,,,,,
2020,10,18,03,17,00,-31.1,,,,,,,,,,,,,,
2020,10,18,03,18,00,-31.1,,,,,,,,,,,,,,
2020,10,18,03,19,00,-31.2,,,,,,,,,,,,,,
2020,10,18,03,20,00,-31.2,,,,,,,,,,,,,,
2020,10,18,03,21,00,-31.4,,,,,,,,,,,,,,
2020,10,18,03,22,00,-31.4,,,,,,,,,,,,,,
2020,10,18,03,23,00,-31.3,,,,,,,,,,,,,,
2020,10,18,03,24,00,-31.4,,,,,,,,,,,,,,
2020,10,18,03,25,00,-31.5,,,,,,,,,,,,,,
2020,10,18,03,26,00,-31.5,,,,,,,,,,,,,,
2020,10,18,03,27,00,-31.7,,,,,,,,,,,,,,
2020,10,18,03,28,00,-31.8,,,,,,,,,,,,,,
2020,10,18,03,29,00,-32.0,,,,,,,,,,,,,,
2020,10,18,03,30,00,-32.5,,,,,,,,,,,,,,
2020,10,18,03,31,00,-33.0,,,,,,,,,,,,,,
2020,10,18,03,32,00,-33.4,,,,,,,,,,,,,,
2020,10,18,03,33,00,-33.4,,,,,,,,,,,,,,
2020,10,18,03,34,00,-33.3,,,,,,,,,,,,,,
2020,10,18,03,35,00,-33.8,,,,,,,,,,,,,,
2020,10,18,03,36,00,-33.9,,,,,,,,,,,,,,
2020,10,18,03,37,00,-33.7,,,,,,,,,,,,,,
2020,10,18,03,38,00,-33.7,,,,,,,,,,,,,,
2020,10,18,03,39,00,-33.7,,,,,,,,,,,,,,
2020,10,18,03,40,00,-33.8,,,,,,,,,,,,,,
2020,10,18,03,41,00,-34.0,,,,,,,,,,,,,,
2020,10,18,03,42,00,-34.3,,,,,,,,,,,,,,
2020,10,18,03,43,00,-34.3,,,,,,,,,,,,,,
2020,10,18,03,44,00,-33.1,,,,,,,,,,,,,,
2020,10,18,03,45,00,-32.5,,,,,,,,,,,,,,
2020,10,18,03,46,00,-32.8,,,,,,,,,,,,,,
2020,10,18,03,47,00,-32.6,,,,,,,,,,,,,,
2020,10,18,03,48,00,-32.6,,,,,,,,,,,,,,
2020,10,18,03,49,00,-32.6,,,,,,,,,,,,,,
2020,10,18,03,50,00,-31.9,,,,,,,,,,,,,,
2020,10,18,03,51,00,-31.7,,,,,,,,,,,,,,
2020,10,18,03,52,00,-31.5,,,,,,,,,,,,,,
2020,10,18,03,53,00,-31.3,,,,,,,,,,,,,,
2020,10,18,03,54,00,-31.6,,,,,,,,,,,,,,
2020,10,18,03,55,00,-33.0,,,,,,,,,,,,,,
2020,10,18,03,56,00,-33.1,,,,,,,,,,,,,,
2020,10,18,03,57,00,-32.9,,,,,,,,,,,,,,
2020,10,18,03,58,00,-33.3,,,,,,,,,,,,,,
2020,10,18,03,59,00,-33.9,,,,,,,,,,,,,,
2020,10,18,04,00,00,-33.9,,,,,,,,,,,,,,
2020,10,18,04,01,00,,,,,,,,,,,,,,,
2020,10,18,04,02,00,,,,,,,,,,,,,,,
2020,10,18,04,03,00,-33.8,,,,,,,,,,,,,,
2020,10,18,04,04,00,-33.9,,,,,,,,,,,,,,
2020,10,18,04,05,00,-34.2,,,,,,,,,,,,,,
2020,10,18,04,06,00,-34.0,,,,,,,,,,,,,,
2020,10,18,04,07,00,-33.4,,,,,,,,,,,,,,
2020,10,18,04,08,00,-32.6,,,,,,,,,,,,,,
2020,10,18,04,09,00,-33.0,,,,,,,,,,,,,,
2020,10,18,04,10,00,-33.0,,,,,,,,,,,,,,
2020,10,18,04,11,00,-32.6,,,,,,,,,,,,,,
2020,10,18,04,12,00,-32.5,,,,,,,,,,,,,,
2020,10,18,04,13,00,-32.4,,,,,,,,,,,,,,
2020,10,18,04,14,00,-32.2,,,,,,,,,,,,,,
2020,10,18,04,15,00,-31.6,,,,,,,,,,,,,,
2020,10,18,04,16,00,-31.7,,,,,,,,,,,,,,
2020,10,18,04,17,00,-31.7,,,,,,,,,,,,,,
2020,10,18,04,18,00,-31.6,,,,,,,,,,,,,,
2020,10,18,04,19,00,-31.9,,,,,,,,,,,,,,
2020,10,18,04,20,00,-32.6,,,,,,,,,,,,,,
2020,10,18,04,21,00,-33.4,,,,,,,,,,,,,,
2020,10,18,04,22,00,-34.1,,,,,,,,,,,,,,
2020,10,18,04,23,00,-33.5,,,,,,,,,,,,,,
2020,10,18,04,24,00,-33.3,,,,,,,,,,,,,,
2020,10,18,04,25,00,-33.3,,,,,,,,,,,,,,
2020,10,18,04,26,00,-33.3,,,,,,,,,,,,,,
2020,10,18,04,27,00,-33.0,,,,,,,,,,,,,,
2020,10,18,04,28,00,-33.2,,,,,,,,,,,,,,
2020,10,18,04,29,00,-33.2,,,,,,,,,,,,,,
2020,10,18,04,30,00,-33.2,,,,,,,,,,,,,,
2020,10,18,04,31,00,-32.9,,,,,,,,,,,,,,
2020,10,18,04,32,00,-32.5,,,,,,,,,,,,,,
2020,10,18,04,33,00,-31.9,,,,,,,,,,,,,,
2020,10,18,04,34,00,-31.2,,,,,,,,,,,,,,
2020,10,18,04,35,00,-30.9,,,,,,,,,,,,,,
2020,10,18,04,36,00,-31.0,,,,,,,,,,,,,,
2020,10,18,04,37,00,-31.3,,,,,,,,,,,,,,
2020,10,18,04,38,00,-31.6,,,,,,,,,,,,,,
2020,10,18,04,39,00,-31.8,,,,,,,,,,,,,,
2020,10,18,04,40,00,-31.8,,,,,,,,,,,,,,
2020,10,18,04,41,00,-31.8,,,,,,,,,,,,,,
2020,10,18,04,42,00,-31.7,,,,,,,,,,,,,,
2020,10,18,04,43,00,-31.6,,,,,,,,,,,,,,
2020,10,18,04,44,00,-31.3,,,,,,,,,,,,,,
2020,10,18,04,45,00,-31.0,,,,,,,,,,,,,,
2020,10,18,04,46,00,-30.9,,,,,,,,,,,,,,
2020,10,18,04,47,00,-31.0,,,,,,,,,,,,,,
2020,10,18,04,48,00,-31.2,,,,,,,,,,,,,,
2020,10,18,04,49,00,-31.3,,,,,,,,,,,,,,
2020,10,18,04,50,00,-31.2,,,,,,,,,,,,,,
2020,10,18,04,51,00,-30.9,,,,,,,,,,,,,,
2020,10,18,04,52,00,-30.7,,,,,,,,,,,,,,
2020,10,18,04,53,00,-30.8,,,,,,,,,,,,,,
2020,10,18,04,54,00,-30.7,,,,,,,,,,,,,,
2020,10,18,04,55,00,-31.3,,,,,,,,,,,,,,
2020,10,18,04,56,00,-32.0,,,,,,,,,,,,,,
2020,10,18,04,57,00,-32.1,,,,,,,,,,,,,,
2020,10,18,04,58,00,-31.9,,,,,,,,,,,,,,
2020,10,18,04,59,00,-31.9,,,,,,,,,,,,,,
2020,10,18,05,00,00,-32.1,,,,,,,,,,,,,,
2020,10,18,05,01,00,-32.2,,,,,,,,,,,,,,
2020,10,18,05,02,00,-5.2,,,,,,,,,,,,,,
2020,10,18,05,03,00,39.9,,,,,,,,,,,,,,
2020,10,18,05,04,00,39.0,,,,,,,,,,,,,,
2020,10,18,05,05,00,41.2,,,,,,,,,,,,,,
2020,10,18,05,06,00,47.3,,,,,,,,,,,,,,
2020,10,18,05,07,00,53.0,,,,,,,,,,,,,,
2020,10,18,05,08,00,45.1,,,,,,,,,,,,,,
2020,10,18,05,09,00,34.4,,,,,,,,,,,,,,
2020,10,18,05,10,00,26.3,,,,,,,,,,,,,,
2020,10,18,05,11,00,23.7,,,,,,,,,,,,,,
2020,10,18,05,12,00,21.8,,,,,,,,,,,,,,
2020,10,18,05,13,00,22.8,,,,,,,,,,,,,,
2020,10,18,05,14,00,16.5,,,,,,,,,,,,,,
2020,10,18,05,15,00,15.3,,,,,,,,,,,,,,
2020,10,18,05,16,00,16.6,,,,,,,,,,,,,,
2020,10,18,05,17,00,14.0,,,,,,,,,,,,,,
2020,10,18,05,18,00,5.2,,,,,,,,,,,,,,
2020,10,18,05,19,00,-12.9,,,,,,,,,,,,,,
2020,10,18,05,20,00,-41.8,,,,,,,,,,,,,,
2020,10,18,05,21,00,-38.8,,,,,,,,,,,,,,
2020,10,18,05,22,00,-22.4,,,,,,,,,,,,,,
2020,10,18,05,23,00,-5.2,,,,,,,,,,,,,,
2020,10,18,05,24,00,112.3,,,,,,,,,,,,,,
2020,10,18,05,25,00,331.1,,,,,,,,,,,,,,
2020,10,18,05,26,00,345.8,,,,,,,,,,,,,,
2020,10,18,05,27,00,301.9,,,,,,,,,,,,,,
2020,10,18,05,28,00,266.6,,,,,,,,,,,,,,
2020,10,18,05,29,00,242.2,,,,,,,,,,,,,,
2020,10,18,05,30,00,249.3,,,,,,,,,,,,,,
2020,10,18,05,31,00,213.6,,,,,,,,,,,,,,
2020,10,18,05,32,00,182.0,,,,,,,,,,,,,,
2020,10,18,05,33,00,167.3,,,,,,,,,,,,,,
2020,10,18,05,34,00,193.4,,,,,,,,,,,,,,
2020,10,18,05,35,00,255.8,,,,,,,,,,,,,,
2020,10,18,05,36,00,292.3,,,,,,,,,,,,,,
2020,10,18,05,37,00,317.0,,,,,,,,,,,,,,
2020,10,18,05,38,00,350.7,,,,,,,,,,,,,,
2020,10,18,05,39,00,371.7,,,,,,,,,,,,,,
2020,10,18,05,40,00,329.8,,,,,,,,,,,,,,
2020,10,18,05,41,00,342.8,,,,,,,,,,,,,,
2020,10,18,05,42,00,351.3,,,,,,,,,,,,,,
2020,10,18,05,43,00,358.3,,,,,,,,,,,,,,
2020,10,18,05,44,00,373.6,,,,,,,,,,,,,,
2020,10,18,05,45,00,367.3,,,,,,,,,,,,,,
2020,10,18,05,46,00,346.8,,,,,,,,,,,,,,
2020,10,18,05,47,00,323.8,,,,,,,,,,,,,,
2020,10,18,05,48,00,307.5,,,,,,,,,,,,,,
2020,10,18,05,49,00,322.7,,,,,,,,,,,,,,
2020,10,18,05,50,00,352.3,,,,,,,,,,,,,,
2020,10,18,05,51,00,339.0,,,,,,,,,,,,,,
2020,10,18,05,52,00,332.3,,,,,,,,,,,,,,
2020,10,18,05,53,00,323.5,,,,,,,,,,,,,,
2020,10,18,05,54,00,306.3,,,,,,,,,,,,,,
2020,10,18,05,55,00,297.4,,,,,,,,,,,,,,
2020,10,18,05,56,00,320.4,,,,,,,,,,,,,,
2020,10,18,05,57,00,364.0,,,,,,,,,,,,,,
2020,10,18,05,58,00,407.3,,,,,,,,,,,,,,
2020,10,18,05,59,00,352.6,,,,,,,,,,,,,,
2020,10,18,06,00,00,309.8,,,,,,,,,,,,,,
2020,10,18,06,01,00,314.5,,,,,,,,,,,,,,
2020,10,18,06,02,00,330.3,,,,,,,,,,,,,,
2020,10,18,06,03,00,347.9,,,,,,,,,,,,,,
2020,10,18,06,04,00,367.1,,,,,,,,,,,,,,
2020,10,18,06,05,00,369.7,,,,,,,,,,,,,,
2020,10,18,06,06,00,380.5,,,,,,,,,,,,,,
2020,10,18,06,07,00,412.1,,,,,,,,,,,,,,
2020,10,18,06,08,00,403.1,,,,,,,,,,,,,,
2020,10,18,06,09,00,361.4,,,,,,,,,,,,,,
2020,10,18,06,10,00,355.2,,,,,,,,,,,,,,
2020,10,18,06,11,00,392.8,,,,,,,,,,,,,,
2020,10,18,06,12,00,389.9,,,,,,,,,,,,,,
2020,10,18,06,13,00,386.5,,,,,,,,,,,,,,
2020,10,18,06,14,00,361.9,,,,,,,,,,,,,,
2020,10,18,06,15,00,335.9,,,,,,,,,,,,,,
2020,10,18,06,16,00,354.6,,,,,,,,,,,,,,
2020,10,18,06,17,00,369.9,,,,,,,,,,,,,,
2020,10,18,06,18,00,416.8,,,,,,,,,,,,,,
2020,10,18,06,19,00,,,,,,,,,,,,,,,
2020,10,18,06,20,00,,,,,,,,,,,,,,,
2020,10,18,06,21,00,367.4,,,,,,,,,,,,,,
2020,10,18,06,22,00,397.0,,,,,,,,,,,,,,
2020,10,18,06,23,00,334.4,,,,,,,,,,,,,,
2020,10,18,06,24,00,272.6,,,,,,,,,,,,,,
2020,10,18,06,25,00,272.5,,,,,,,,,,,,,,
2020,10,18,06,26,00,315.5,,,,,,,,,,,,,,
2020,10,18,06,27,00,328.9,,,,,,,,,,,,,,
2020,10,18,06,28,00,342.6,,,,,,,,,,,,,,
2020,10,18,06,29,00,380.9,,,,,,,,,,,,,,
2020,10,18,06,30,00,401.5,,,,,,,,,,,,,,
2020,10,18,06,31,00,407.5,,,,,,,,,,,,,,
2020,10,18,06,32,00,398.3,,,,,,,,,,,,,,
2020,10,18,06,33,00,402.0,,,,,,,,,,,,,,
2020,10,18,06,34,00,373.1,,,,,,,,,,,,,,
2020,10,18,06,35,00,376.1,,,,,,,,,,,,,,
2020,10,18,06,36,00,343.3,,,,,,,,,,,,,,
2020,10,18,06,37,00,323.7,,,,,,,,,,,,,,
2020,10,18,06,38,00,333.0,,,,,,,,,,,,,,
2020,10,18,06,39,00,365.2,,,,,,,,,,,,,,
2020,10,18,06,40,00,379.4,,,,,,,,,,,,,,
2020,10,18,06,41,00,364.1,,,,,,,,,,,,,,
2020,10,18,06,42,00,341.4,,,,,,,,,,,,,,
2020,10,18,06,43,00,342.3,,,,,,,,,,,,,,
2020,10,18,06,44,00,377.0,,,,,,,,,,,,,,
2020,10,18,06,45,00,441.7,,,,,,,,,,,,,,
2020,10,18,06,46,00,346.7,,,,,,,,,,,,,,
2020,10,18,06,47,00,275.6,,,,,,,,,,,,,,
2020,10,18,06,48,00,253.5,,,,,,,,,,,,,,
2020,10,18,06,49,00,265.8,,,,,,,,,,,,,,
2020,10,18,06,50,00,270.9,,,,,,,,,,,,,,
2020,10,18,06,51,00,298.7,,,,,,,,,,,,,,
2020,10,18,06,52,00,361.0,,,,,,,,,,,,,,
2020,10,18,06,53,00,373.7,,,,,,,,,,,,,,
2020,10,18,06,54,00,344.5,,,,,,,,,,,,,,
2020,10,18,06,55,00,314.9,,,,,,,,,,,,,,
2020,10,18,06,56,00,275.9,,,,,,,,,,,,,,
2020,10,18,06,57,00,260.4,,,,,,,,,,,,,,
2020,10,18,06,58,00,251.4,,,,,,,,,,,,,,
2020,10,18,06,59,00,230.1,,,,,,,,,,,,,,
2020,10,18,07,00,00,240.9,,,,,,,,,,,,,,
2020,10,18,07,01,00,274.2,,,,,,,,,,,,,,
2020,10,18,07,02,00,282.8,,,,,,,,,,,,,,
2020,10,18,07,03,00,335.6,,,,,,,,,,,,,,
2020,10,18,07,04,00,381.6,,,,,,,,,,,,,,
2020,10,18,07,05,00,390.0,,,,,,,,,,,,,,
2020,10,18,07,06,00,390.5,,,,,,,,,,,,,,
2020,10,18,07,07,00,354.3,,,,,,,,,,,,,,
2020,10,18,07,08,00,275.5,,,,,,,,,,,,,,
2020,10,18,07,09,00,254.8,,,,,,,,,,,,,,
2020,10,18,07,10,00,257.3,,,,,,,,,,,,,,
2020,10,18,07,11,00,274.4,,,,,,,,,,,,,,
2020,10,18,07,12,00,303.7,,,,,,,,,,,,,,
2020,10,18,07,13,00,308.4,,,,,,,,,,,,,,
2020,10,18,07,14,00,284.2,,,,,,,,,,,,,,
2020,10,18,07,15,00,297.8,,,,,,,,,,,,,,
2020,10,18,07,16,00,294.8,,,,,,,,,,,,,,
2020,10,18,07,17,00,260.8,,,,,,,,,,,,,,
2020,10,18,07,18,00,247.9,,,,,,,,,,,,,,
2020,10,18,07,19,00,263.2,,,,,,,,,,,,,,
2020,10,18,07,20,00,304.3,,,,,,,,,,,,,,
2020,10,18,07,21,00,352.8,,,,,,,,,,,,,,
2020,10,18,07,22,00,349.6,,,,,,,,,,,,,,
2020,10,18,07,23,00,319.7,,,,,,,,,,,,,,
2020,10,18,07,24,00,308.6,,,,,,,,,,,,,,
2020,10,18,07,25,00,301.4,,,,,,,,,,,,,,
2020,10,18,07,26,00,300.3,,,,,,,,,,,,,,
2020,10,18,07,27,00,302.4,,,,,,,,,,,,,,
2020,10,18,07,28,00,325.5,,,,,,,,,,,,,,
2020,10,18,07,29,00,338.3,,,,,,,,,,,,,,
2020,10,18,07,30,00,331.9,,,,,,,,,,,,,,
2020,10,18,07,31,00,294.3,,,,,,,,,,,,,,
2020,10,18,07,32,00,327.3,,,,,,,,,,,,,,
2020,10,18,07,33,00,370.2,,,,,,,,,,,,,,
2020,10,18,07,34,00,375.6,,,,,,,,,,,,,,
2020,10,18,07,35,00,375.3,,,,,,,,,,,,,,
2020,10,18,07,36,00,420.4,,,,,,,,,,,,,,
2020,10,18,07,37,00,413.1,,,,,,,,,,,,,,
2020,10,18,07,38,00,391.1,,,,,,,,,,,,,,
2020,10,18,07,39,00,367.7,,,,,,,,,,,,,,
2020,10,18,07,40,00,330.4,,,,,,,,,,,,,,
2020,10,18,07,41,00,339.5,,,,,,,,,,,,,,
2020,10,18,07,42,00,343.7,,,,,,,,,,,,,,
2020,10,18,07,43,00,374.6,,,,,,,,,,,,,,
2020,10,18,07,44,00,447.9,,,,,,,,,,,,,,
2020,10,18,07,45,00,468.3,,,,,,,,,,,,,,
2020,10,18,07,46,00,471.7,,,,,,,,,,,,,,
2020,10,18,07,47,00,387.3,,,,,,,,,,,,,,
2020,10,18,07,48,00,339.1,,,,,,,,,,,,,,
2020,10,18,07,49,00,329.6,,,,,,,,,,,,,,
2020,10,18,07,50,00,336.2,,,,,,,,,,,,,,
2020,10,18,07,51,00,340.8,,,,,,,,,,,,,,
2020,10,18,07,52,00,330.8,,,,,,,,,,,,,,
2020,10,18,07,53,00,338.7,,,,,,,,,,,,,,
2020,10,18,07,54,00,324.1,,,,,,,,,,,,,,
2020,10,18,07,55,00,346.2,,,,,,,,,,,,,,
2020,10,18,07,56,00,329.8,,,,,,,,,,,,,,
2020,10,18,07,57,00,320.7,,,,,,,,,,,,,,
2020,10,18,07,58,00,321.9,,,,,,,,,,,,,,
2020,10,18,07,59,00,331.0,,,,,,,,,,,,,,
2020,10,18,08,00,00,370.4,,,,,,,,,,,,,,
2020,10,18,08,01,00,438.1,,,,,,,,,,,,,,
2020,10,18,08,02,00,542.5,,,,,,,,,,,,,,
2020,10,18,08,03,00,582.8,,,,,,,,,,,,,,
2020,10,18,08,04,00,530.5,,,,,,,,,,,,,,
2020,10,18,08,05,00,539.0,,,,,,,,,,,,,,
2020,10,18,08,06,00,552.7,,,,,,,,,,,,,,
2020,10,18,08,07,00,601.7,,,,,,,,,,,,,,
2020,10,18,08,08,00,510.5,,,,,,,,,,,,,,
2020,10,18,08,09,00,473.9,,,,,,,,,,,,,,
2020,10,18,08,10,00,518.8,,,,,,,,,,,,,,
2020,10,18,08,11,00,581.4,,,,,,,,,,,,,,
2020,10,18,08,12,00,598.5,,,,,,,,,,,,,,
2020,10,18,08,13,00,653.3,,,,,,,,,,,,,,
2020,10,18,08,14,00,635.9,,,,,,,,,,,,,,
2020,10,18,08,15,00,672.2,,,,,,,,,,,,,,
2020,10,18,08,16,00,617.4,,,,,,,,,,,,,,
2020,10,18,08,17,00,659.6,,,,,,,,,,,,,,
2020,10,18,08,18,00,599.9,,,,,,,,,,,,,,
2020,10,18,08,19,00,507.4,,,,,,,,,,,,,,
2020,10,18,08,20,00,511.9,,,,,,,,,,,,,,
2020,10,18,08,21,00,595.3,,,,,,,,,,,,,,
2020,10,18,08,22,00,579.7,,,,,,,,,,,,,,
2020,10,18,08,23,00,538.7,,,,,,,,,,,,,,
2020,10,18,08,24,00,488.8,,,,,,,,,,,,,,
2020,10,18,08,25,00,434.8,,,,,,,,,,,,,,
2020,10,18,08,26,00,429.6,,,,,,,,,,,,,,
2020,10,18,08,27,00,395.8,,,,,,,,,,,,,,
2020,10,18,08,28,00,382.5,,,,,,,,,,,,,,
2020,10,18,08,29,00,385.6,,,,,,,,,,,,,,
2020,10,18,08,30,00,422.3,,,,,,,,,,,,,,
2020,10,18,08,31,00,423.7,,,,,,,,,,,,,,
2020,10,18,08,32,00,370.7,,,,,,,,,,,,,,
2020,10,18,08,33,00,374.0,,,,,,,,,,,,,,
2020,10,18,08,34,00,345.6,,,,,,,,,,,,,,
2020,10,18,08,35,00,417.6,,,,,,,,,,,,,,
2020,10,18,08,36,00,371.3,,,,,,,,,,,,,,
2020,10,18,08,37,00,385.2,,,,,,,,,,,,,,
2020,10,18,08,38,00,369.3,,,,,,,,,,,,,,
2020,10,18,08,39,00,383.1,,,,,,,,,,,,,,
2020,10,18,08,40,00,427.6,,,,,,,,,,,,,,
2020,10,18,08,41,00,412.9,,,,,,,,,,,,,,
2020,10,18,08,42,00,404.5,,,,,,,,,,,,,,
2020,10,18,08,43,00,433.7,,,,,,,,,,,,,,
2020,10,18,08,44,00,524.7,,,,,,,,,,,,,,
2020,10,18,08,45,00,517.3,,,,,,,,,,,,,,
2020,10,18,08,46,00,423.2,,,,,,,,,,,,,,
2020,10,18,08,47,00,404.3,,,,,,,,,,,,,,
2020,10,18,08,48,00,395.5,,,,,,,,,,,,,,
2020,10,18,08,49,00,426.4,,,,,,,,,,,,,,
2020,10,18,08,50,00,433.5,,,,,,,,,,,,,,
2020,10,18,08,51,00,476.5,,,,,,,,,,,,,,
2020,10,18,08,52,00,492.7,,,,,,,,,,,,,,
2020,10,18,08,53,00,543.5,,,,,,,,,,,,,,
2020,10,18,08,54,00,473.0,,,,,,,,,,,,,,
2020,10,18,08,55,00,482.3,,,,,,,,,,,,,,
2020,10,18,08,56,00,507.9,,,,,,,,,,,,,,
2020,10,18,08,57,00,559.8,,,,,,,,,,,,,,
2020,10,18,08,58,00,582.8,,,,,,,,,,,,,,
2020,10,18,08,59,00,567.3,,,,,,,,,,,,,,
2020,10,18,09,00,00,615.8,,,,,,,,,,,,,,
2020,10,18,09,01,00,685.9,,,,,,,,,,,,,,
2020,10,18,09,02,00,679.7,,,,,,,,,,,,,,
2020,10,18,09,03,00,696.6,,,,,,,,,,,,,,
2020,10,18,09,04,00,632.7,,,,,,,,,,,,,,
2020,10,18,09,05,00,648.3,,,,,,,,,,,,,,
2020,10,18,09,06,00,698.3,,,,,,,,,,,,,,
2020,10,18,09,07,00,786.3,,,,,,,,,,,,,,
2020,10,18,09,08,00,921.7,,,,,,,,,,,,,,
2020,10,18,09,09,00,821.0,,,,,,,,,,,,,,
2020,10,18,09,10,00,874.0,,,,,,,,,,,,,,
2020,10,18,09,11,00,912.4,,,,,,,,,,,,,,
2020,10,18,09,12,00,998.5,,,,,,,,,,,,,,
2020,10,18,09,13,00,966.8,,,,,,,,,,,,,,
2020,10,18,09,14,00,923.0,,,,,,,,,,,,,,
2020,10,18,09,15,00,921.2,,,,,,,,,,,,,,
2020,10,18,09,16,00,1066.5,,,,,,,,,,,,,,
2020,10,18,09,17,00,995.6,,,,,,,,,,,,,,
2020,10,18,09,18,00,894.0,,,,,,,,,,,,,,
2020,10,18,09,19,00,977.0,,,,,,,,,,,,,,
2020,10,18,09,20,00,1081.8,,,,,,,,,,,,,,
2020,10,18,09,21,00,975.3,,,,,,,,,,,,,,
2020,10,18,09,22,00,834.0,,,,,,,,,,,,,,
2020,10,18,09,23,00,788.4,,,,,,,,,,,,,,
2020,10,18,09,24,00,759.6,,,,,,,,,,,,,,
2020,10,18,09,25,00,655.5,,,,,,,,,,,,,,
2020,10,18,09,26,00,578.5,,,,,,,,,,,,,,
2020,10,18,09,27,00,469.4,,,,,,,,,,,,,,
2020,10,18,09,28,00,438.9,,,,,,,,,,,,,,
2020,10,18,09,29,00,407.7,,,,,,,,,,,,,,
2020,10,18,09,30,00,404.4,,,,,,,,,,,,,,
2020,10,18,09,31,00,423.7,,,,,,,,,,,,,,
2020,10,18,09,32,00,375.3,,,,,,,,,,,,,,
2020,10,18,09,33,00,443.4,,,,,,,,,,,,,,
2020,10,18,09,34,00,446.3,,,,,,,,,,,,,,
2020,10,18,09,35,00,441.1,,,,,,,,,,,,,,
2020,10,18,09,36,00,451.1,,,,,,,,,,,,,,
2020,10,18,09,37,00,456.4,,,,,,,,,,,,,,
2020,10,18,09,38,00,489.2,,,,,,,,,,,,,,
2020,10,18,09,39,00,499.1,,,,,,,,,,,,,,
2020,10,18,09,40,00,497.3,,,,,,,,,,,,,,
2020,10,18,09,41,00,475.4,,,,,,,,,,,,,,
2020,10,18,09,42,00,549.5,,,,,,,,,,,,,,
2020,10,18,09,43,00,547.1,,,,,,,,,,,,,,
2020,10,18,09,44,00,526.0,,,,,,,,,,,,,,
2020,10,18,09,45,00,491.0,,,,,,,,,,,,,,
2020,10,18,09,46,00,534.9,,,,,,,,,,,,,,